Regional Weather Roundup
Issued by NWS

Home | Current Version | Previous Version | Text Only | Print | Product List | Glossary Off
Versions: 1 2 3 4 5 6 7 8 9 10 11 12 13 14 15 16 17 18 19 20 21 22 23 24 25 26 27 28 29 30 31 32 33 34 35 36 37 38 39 40 41 42 43 44 45 46 47 48 49 50

000
ASUS43 KIND 040909
RWRIN

WEATHER ROUNDUP FOR INDIANA
NATIONAL WEATHER SERVICE INDIANAPOLIS IN
500 AM EDT SAT JUL 04 2015

NOTE: "FAIR" INDICATES FEW OR NO CLOUDS BELOW 12,000 FEET WITH NO
SIGNIFICANT WEATHER AND/OR OBSTRUCTIONS TO VISIBILITY.

* - STATION DOES NOT REPORT WEATHER SUCH AS PRECIPITATION OR FOG.

+ - STATION NOT QUALITY CONTROLLED BY THE NATIONAL WEATHER SERVICE.
    USE DATA WITH CAUTION...ESPECIALLY DEWPOINT AND RELATIVE
    HUMIDITY OBSERVATIONS.

INZ001>003-010>013-019-020-041000-
NORTHWEST INDIANA

CITY           SKY/WX    TMP DP  RH WIND       PRES   REMARKS
GARY /AIRPORT/ PTCLDY   N/A N/A N/A CALM      29.96R FOG
KNOX *+          N/A     54  54 100 CALM      29.95R VSB 1/4
LA PORTE +     PTCLDY   N/A N/A N/A CALM      29.96S HAZE
MICHIGAN CITY+ FOG       52  52 100 CALM      29.97R VSB 1
MONTICELLO +   CLEAR     56  56 100 CALM      29.94S
RENSSELAER +   CLEAR     55  55 100 CALM      29.96R FOG
VALPARAISO     CLEAR     56  54  93 CALM      29.96S

$$

LMZ046-743>745-041000-
SOUTHERN LAKE MICHIGAN

STATION/POSITION TIME  TEMP    WIND        PRES    WAVE
                       AIR SEA DIR/SP/G            HT
                 (UTC) (F)     (DEG/KT/KT) (MB)    (FT)
BURNS HARBOR     0900   63     250/  2/  3 1014.9S
MICHIGAN CITY    0800   59     200/  4/  4   N/A
5NW MICH CITY    0900   62 63  230/  2/  4   N/A     0

$$

INZ004-005-014>016-021>024-041000-
NORTH CENTRAL INDIANA

CITY           SKY/WX    TMP DP  RH WIND       PRES   REMARKS
GOSHEN         FOG       55  53  93 CALM      29.95R VSB 1/4
LOGANSPORT +   CLEAR     57  54  88 CALM      29.95S
PERU/GRISSOM   CLEAR     59  57  94 CALM      29.94S FOG
ROCHESTER +    CLEAR     59  59 100 CALM      29.95S FOG
SOUTH BEND     CLEAR     55  52  89 CALM      29.96S
WARSAW +         N/A     54  54 100 CALM      29.95R FOG

$$

INZ006>009-017-018-025>027-041000-
NORTHEAST INDIANA

CITY           SKY/WX    TMP DP  RH WIND       PRES   REMARKS
ANGOLA *+        N/A     54  41  62 CALM      29.95S
AUBURN +       CLEAR     55  54  94 CALM      29.95S FOG
FORT WAYNE     PTCLDY    56  55  97 CALM      29.95S
HUNTINGTON +   CLEAR     57  56  97 CALM      29.94F FOG

$$

INZ028-029-035-036-043>045-051>053-041000-
WEST CENTRAL INDIANA

CITY           SKY/WX    TMP DP  RH WIND       PRES   REMARKS
CRAWFORDSVL +    N/A     56  56  97 CALM      29.95S FOG
GREENCASTLE +  CLEAR     63  57  82 CALM      29.95R HAZE
LAFAYETTE      CLEAR     57  56  96 CALM      29.95R FOG
TERRE HAUTE    PTCLDY    64  62  93 N3        29.94S

$$

INZ030>032-037>040-046>048-054>057-064-065-041000-
CENTRAL INDIANA

CITY           SKY/WX    TMP DP  RH WIND       PRES   REMARKS
CP ATTERBURY + CLOUDY    63  61  94 CALM      29.94R FOG
FRANKFORT +    FOG      N/A N/A N/A CALM      29.96S VSB 1
GREENWOOD *+   MOCLDY    64  61  88 CALM      29.95R
INDIANAPOLIS   PTCLDY    64  60  87 NW3       29.93R
-EAGLE CREEK   PTCLDY    63  61  93 CALM      29.94R
KOKOMO *+      CLEAR     57  55  94 CALM      29.94F
MARION +       FOG       56  56  99 CALM      29.96R VSB 1/2
MT COMFORT *+  CLEAR     61 N/A N/A CALM      29.94R
SHELBYVILLE    CLOUDY    67  63  87 N3        29.93R
ZIONSVILLE +   CLEAR     60  57  91 CALM      29.95S FOG

$$

INZ033-034-041-042-049-050-058-059-041000-
EAST CENTRAL INDIANA

CITY           SKY/WX    TMP DP  RH WIND       PRES   REMARKS
MUNCIE         CLEAR     60  58  92 CALM      29.95R FOG

$$

INZ060-061-067>069-081>083-085>088-041000-
SOUTHWEST INDIANA

CITY           SKY/WX    TMP DP  RH WIND       PRES   REMARKS
EVANSVILLE     PTCLDY    68  66  93 N5        29.92F FOG
HUNTINGBURG *+ MOCLDY    64  61  88 N5        29.93S
WASHINGTON +   CLEAR     64  60  87 CALM      29.93R FOG

$$

INZ062-063-066-070>080-084-089>092-041000-
SOUTH CENTRAL AND SOUTHEAST INDIANA

CITY           SKY/WX    TMP DP  RH WIND       PRES   REMARKS
BLOOMINGTON    CLOUDY    66  65  96 CALM      29.94R FOG
MADISON *+     MOCLDY    64  63  94 CALM      29.95R
NORTH VERNON + PTCLDY    64  64 100 CALM      29.94R FOG
SEYMOUR +      PTCLDY    66  64  94 CALM      29.93R FOG

$$



USA.gov is the U.S. government's official web portal to all federal, state and local government web resources and services.